Tracking 29594 objects as of 20-Sep-2024
HD Live streaming from Space Station
objects crossing your sky now

SIRIUS-SINP-3U

Track SIRIUS-SINP-3U now!
10-day predictions
SIRIUS-SINP-3U is classified as:


NORAD ID: 57170
Int'l Code: 2023-091E
Perigee: 532.5 km
Apogee: 551.3 km
Inclination: 97.6 °
Period: 95.3 minutes
Semi major axis: 6912 km
RCS: Unknown
Launch date: June 27, 2023
Source: (TBD)
Launch site: VOSTOCHNY COSMODROME (VOSTO)

Uplink (MHz):
Downlink (MHz): 436.550
Beacon (MHz):
Mode: 1k2AFSK/4k8GMSK
Call sign:
Status: Inactive


Uplink (MHz):
Downlink (MHz): 436.260
Beacon (MHz):
Mode: LoRa
Call sign: RS52SG
Status: Unknown

Your satellite tracking list
Your tracking list is empty




NASA's NSSDC Master Catalog

Two Line Element Set (TLE):
1 57170U 23091E   24264.56875523  .00010763  00000-0  65586-3 0  9994
2 57170  97.6034 316.2224 0013559 133.2907 226.9456 15.10476135 67896
Source of the keplerian elements: AFSPC